Regional Weather Roundup
Issued by NWS Northern Indiana

Home | Current Version | Previous Version | Graphics & Text | Print | Product List | Glossary On
Versions: 1 2 3 4 5 6 7 8 9 10 11 12 13 14 15 16 17 18 19 20 21 22 23 24 25 26 27 28 29 30 31 32 33 34 35 36 37 38 39 40 41 42 43 44 45 46 47 48 49 50
000
ASUS43 KIWX 210210
RWRIWX

KIWX WEATHER ROUNDUP
NATIONAL WEATHER SERVICE NORTHERN INDIANA
900 PM EST MON FEB 20 2017

NOTE: "FAIR" INDICATES FEW OR NO CLOUDS BELOW 12,000 FEET WITH NO
SIGNIFICANT WEATHER AND/OR OBSTRUCTIONS TO VISIBILITY.

* THESE STATIONS ARE NOT UNDER NWS QUALITY CONTROL. THEY ALSO MAY NOT
  REPORT WEATHER SUCH AS PRECIPITATION OR FOG.

INZ001>027-210300-
NORTHERN INDIANA

CITY           SKY/WX    TMP DP  RH WIND       PRES   REMARKS
GARY*          CLOUDY    63  41  45 SE14G25   29.98F
VALPARAISO     CLOUDY    59  43  55 SE10      30.01F
MICHIGAN CITY* CLOUDY    57  41  54 SE9       30.00F
LAPORTE*       CLOUDY    55  42  63 SE12      30.02F
KNOX*          CLOUDY    55  19  24 SE12      30.02F
SOUTH BEND     CLOUDY    57  41  55 SE16G24   30.05F
ELKHART*       CLEAR     55  41  58 E8        30.05F
GOSHEN         MOCLDY    54  39  57 E13       30.07S
MONTICELLO*    CLOUDY    56  46  66 SE7       30.02F
LOGANSPORT*    CLOUDY    50  43  76 SE8       30.06F
ROCHESTER*     CLOUDY    57  41  54 SE8       30.06F
WARSAW*        CLOUDY    55  41  58 SE9       30.07F
ANGOLA*        CLEAR     43  34  70 E10       30.12R
FORT WAYNE     CLOUDY    54  41  61 SE6       30.10S
HUNTINGTON*    MOCLDY    55  41  60 SE6       30.09R
PERU/GRISSOM   CLOUDY    54  46  75 SE10      30.05S
MARION*        CLOUDY    53  43  68 S6        30.11R

$$
INZ028>050-210300-
CENTRAL INDIANA

CITY           SKY/WX    TMP DP  RH WIND       PRES   REMARKS
LAFAYETTE      PTCLDY    58  46  64 SE10      30.02F
KOKOMO*        PTCLDY    53  45  74 SE9       30.08R
MUNCIE*        PTCLDY    57  42  57 S5        30.09R
INDIANAPOLIS   MOCLDY    55  46  71 E8        30.07S

$$
MIZ043>046-050>051-056>058-064>065-071>073-077>080-210300-
SOUTHWEST LOWER MICHIGAN

CITY           SKY/WX    TMP DP  RH WIND       PRES   REMARKS
BATTLE CREEK   CLOUDY    48  34  58 SE12      30.09F
BENTON HARBOR  CLOUDY    58  41  53 SE14      30.00F
COLDWATER*     CLOUDY    44  30  59 SE9       30.12R
HILLSDALE*     CLOUDY    37  30  75 E12       30.12F
HOLLAND        PTCLDY    54  38  54 SE14      30.02F
GRAND RAPIDS   CLOUDY    50  33  52 SE12      30.06S
KALAMAZOO      CLOUDY    50  34  54 SE9       30.09S
STURGIS*       CLOUDY    47  36  65 SE13G20   30.08F
THREE RIVERS*  FAIR      49  36  61 SE9       30.09S

$$
OHZ001>008-015>018-024>025-210300-
NORTHWEST OHIO

CITY           SKY/WX    TMP DP  RH WIND       PRES   REMARKS
WAUSEON*       MOCLDY    39  32  75 E10       30.14F
DEFIANCE       CLOUDY    40  32  73 E8        30.13F
FINDLAY        CLOUDY    45  34  65 E10       30.12F
TOLEDO EXPRESS CLOUDY    37  32  82 E8        30.15F
TOLEDO METCALF CLOUDY    37  32  82 E7        30.17F
LIMA           CLOUDY    51  41  68 SE9       30.11F

$$
AND FOR LAKE MICHIGAN COASTAL AND OPEN LAKE BUOY OBSERVATIONS

STATION/POSITION TEMP    WIND        PRES    VSBY  WAVE
                 AIR SEA DIR/SP/G                  HT/PER
                 (F)     (DEG/KT/KT) (MB)    (MI)  (FT/S)
CALUMET HARBOR    61     140/ 12/ 20 1013.8F
MICHIGAN CITY     60     120/ 18/ 22   N/A
BURNS HARBOR      61     150/ 11/ 22 1015.6F

$$
&&




USA.gov is the U.S. government's official web portal to all federal, state and local government web resources and services.